| time (UTC) | temp C | wind direction | speed KPH | gust KPH | rain 1hr cm | rain 24hr cm | rain mn cm | humidity % | barometer mb |
| 20260507052501 | 23 | 271 | 1.6 | 16.1 | 0.00 | 0.00 | 0.00 | 46 | 1007.0 |
| 20260507052002 | 23 | 210 | 6.4 | 16.1 | 0.00 | 0.00 | 0.00 | 46 | 1007.0 |
| 20260507051501 | 23 | 266 | 8.0 | 16.1 | 0.00 | 0.00 | 0.00 | 46 | 1006.9 |
| 20260507051103 | 23 | 240 | 4.8 | 16.1 | 0.00 | 0.00 | 0.00 | 46 | 1006.8 |
| 20260507050603 | 23 | 191 | 6.4 | 12.9 | 0.00 | 0.00 | 0.00 | 45 | 1006.7 |
| 20260507050100 | 23 | 228 | 4.8 | 17.7 | 0.00 | 0.00 | 0.00 | 46 | 1006.6 |
| 20260507045606 | 23 | 321 | 4.8 | 19.3 | 0.00 | 0.00 | 0.00 | 46 | 1006.5 |
| 20260507045059 | 23 | 245 | 8.0 | 22.5 | 0.00 | 0.00 | 0.00 | 47 | 1006.6 |
| 20260507044601 | 23 | 258 | 8.0 | 20.9 | 0.00 | 0.00 | 0.00 | 47 | 1006.7 |
| 20260507044200 | 23 | 231 | 11.3 | 20.9 | 0.00 | 0.00 | 0.00 | 47 | 1006.8 |
| 20260507043559 | 23 | 240 | 9.7 | 22.5 | 0.00 | 0.00 | 0.00 | 47 | 1006.8 |
| 20260507043102 | 23 | 156 | 6.4 | 25.7 | 0.00 | 0.00 | 0.00 | 46 | 1006.5 |
| 20260507042559 | 23 | 203 | 8.0 | 25.7 | 0.00 | 0.00 | 0.00 | 46 | 1006.6 |
| 20260507042059 | 23 | 243 | 11.3 | 25.7 | 0.00 | 0.00 | 0.00 | 46 | 1006.4 |
| 20260507041558 | 23 | 203 | 11.3 | 25.7 | 0.00 | 0.00 | 0.00 | 46 | 1006.3 |
| 20260507041057 | 23 | 243 | 16.1 | 25.7 | 0.00 | 0.00 | 0.00 | 46 | 1006.3 |
| 20260507040557 | 23 | 203 | 9.7 | 24.1 | 0.00 | 0.00 | 0.00 | 46 | 1006.2 |
| 20260507040057 | 23 | 224 | 9.7 | 29.0 | 0.00 | 0.00 | 0.00 | 46 | 1006.5 |
| 20260507035557 | 24 | 245 | 12.9 | 29.0 | 0.00 | 0.00 | 0.00 | 46 | 1006.4 |
| 20260507035057 | 24 | 210 | 9.7 | 24.1 | 0.00 | 0.00 | 0.00 | 46 | 1006.2 |
| 20260507034557 | 25 | 261 | 11.3 | 29.0 | 0.00 | 0.00 | 0.00 | 45 | 1005.9 |
| 20260507034056 | 25 | 208 | 11.3 | 29.0 | 0.00 | 0.00 | 0.00 | 44 | 1005.8 |
| 20260507033555 | 25 | 229 | 14.5 | 27.4 | 0.00 | 0.00 | 0.00 | 43 | 1005.7 |
| 20260507033057 | 25 | 256 | 12.9 | 20.9 | 0.00 | 0.00 | 0.00 | 41 | 1005.7 |
| 20260507032556 | 26 | 216 | 4.8 | 12.9 | 0.00 | 0.00 | 0.00 | 40 | 1005.6 |
| 20260507032055 | 26 | 253 | 3.2 | 9.7 | 0.00 | 0.00 | 0.00 | 40 | 1005.3 |
| 20260507031556 | 26 | 192 | 0.0 | 12.9 | 0.00 | 0.00 | 0.00 | 41 | 1005.1 |
| 20260507031101 | 26 | 227 | 3.2 | 14.5 | 0.00 | 0.00 | 0.00 | 41 | 1004.9 |
| 20260507030555 | 26 | 320 | 4.8 | 14.5 | 0.00 | 0.00 | 0.00 | 41 | 1004.6 |
| 20260507030055 | 26 | 326 | 3.2 | 12.9 | 0.00 | 0.00 | 0.00 | 40 | 1004.3 |
| 20260507025600 | 26 | 129 | 1.6 | 17.7 | 0.00 | 0.00 | 0.00 | 40 | 1004.1 |
| 20260507025057 | 26 | 250 | 6.4 | 19.3 | 0.00 | 0.00 | 0.00 | 40 | 1004.0 |
| 20260507024611 | 27 | 354 | 9.7 | 24.1 | 0.00 | 0.00 | 0.00 | 39 | 1004.0 |
| 20260507024053 | 27 | 349 | 9.7 | 27.4 | 0.00 | 0.00 | 0.00 | 39 | 1003.9 |
| 20260507023559 | 27 | 320 | 11.3 | 27.4 | 0.00 | 0.00 | 0.00 | 39 | 1003.7 |
| 20260507023053 | 27 | 358 | 11.3 | 25.7 | 0.00 | 0.00 | 0.00 | 38 | 1003.6 |
| 20260507022555 | 27 | 293 | 8.0 | 25.7 | 0.00 | 0.00 | 0.00 | 38 | 1003.6 |
| 20260507022054 | 27 | 314 | 6.4 | 14.5 | 0.00 | 0.00 | 0.00 | 37 | 1003.6 |
| 20260507021553 | 28 | 39 | 3.2 | 16.1 | 0.00 | 0.00 | 0.00 | 36 | 1003.5 |
| 20260507021055 | 28 | 292 | 6.4 | 17.7 | 0.00 | 0.00 | 0.00 | 36 | 1003.5 |
| 20260507020552 | 28 | 316 | 4.8 | 20.9 | 0.00 | 0.00 | 0.00 | 36 | 1003.3 |
| 20260507020107 | 28 | 307 | 4.8 | 20.9 | 0.00 | 0.00 | 0.00 | 34 | 1003.3 |
| 20260507015551 | 28 | 302 | 1.6 | 8.0 | 0.00 | 0.00 | 0.00 | 32 | 1003.2 |
| 20260507015051 | 28 | 65 | 0.0 | 1.6 | 0.00 | 0.00 | 0.00 | 33 | 1002.9 |
| 20260507014603 | 29 | 65 | 0.0 | 1.6 | 0.00 | 0.00 | 0.00 | 32 | 1002.8 |
| 20260507014051 | 29 | 67 | 0.0 | 1.6 | 0.00 | 0.00 | 0.00 | 31 | 1002.6 |
| 20260507013550 | 29 | 68 | 0.0 | 1.6 | 0.00 | 0.00 | 0.00 | 31 | 1002.5 |
| 20260507013053 | 29 | 68 | 0.0 | 1.6 | 0.00 | 0.00 | 0.00 | 31 | 1002.5 |
| 20260507012551 | 29 | 68 | 0.0 | 1.6 | 0.00 | 0.00 | 0.00 | 31 | 1002.4 |
| 20260507012049 | 30 | 67 | 0.0 | 3.2 | 0.00 | 0.00 | 0.00 | 31 | 1002.4 |
| 20260507011549 | 30 | 64 | 0.0 | 3.2 | 0.00 | 0.00 | 0.00 | 30 | 1002.3 |
| 20260507011049 | 30 | 97 | 0.0 | 1.6 | 0.00 | 0.00 | 0.00 | 30 | 1002.3 |
| 20260507010648 | 30 | 97 | 0.0 | 1.6 | 0.00 | 0.00 | 0.00 | 30 | 1002.3 |
| 20260507010048 | 30 | 99 | 0.0 | 1.6 | 0.00 | 0.00 | 0.00 | 30 | 1002.2 |
| 20260507005548 | 31 | 99 | 0.0 | 1.6 | 0.00 | 0.00 | 0.00 | 30 | 1002.3 |
| 20260507005047 | 31 | 101 | 0.0 | 1.6 | 0.00 | 0.00 | 0.00 | 30 | 1002.2 |
| 20260507004548 | 31 | 110 | 0.0 | 1.6 | 0.00 | 0.00 | 0.00 | 29 | 1002.1 |
| 20260507004048 | 31 | 101 | 0.0 | 1.6 | 0.00 | 0.00 | 0.00 | 28 | 1002.1 |
| 20260507003548 | 31 | 82 | 0.0 | 4.8 | 0.00 | 0.00 | 0.00 | 28 | 1002.0 |
| 20260507003048 | 31 | 109 | 0.0 | 4.8 | 0.00 | 0.00 | 0.00 | 28 | 1001.9 |
| 20260507002547 | 31 | 99 | 0.0 | 9.7 | 0.00 | 0.00 | 0.00 | 27 | 1001.8 |
| 20260507002047 | 32 | 60 | 1.6 | 9.7 | 0.00 | 0.00 | 0.00 | 28 | 1001.8 |
| 20260507001553 | 32 | 101 | 0.0 | 4.8 | 0.00 | 0.00 | 0.00 | 27 | 1001.7 |
| 20260507001046 | 32 | 339 | 0.0 | 8.0 | 0.00 | 0.00 | 0.00 | 26 | 1001.6 |
| 20260507000547 | 32 | 114 | 0.0 | 9.7 | 0.00 | 0.00 | 0.00 | 27 | 1001.5 |
| 20260507000049 | 32 | 74 | 1.6 | 9.7 | 0.00 | 0.00 | 0.00 | 26 | 1001.5 |
| 20260506235546 | 32 | 111 | 0.0 | 12.9 | 0.00 | 0.00 | 0.00 | 27 | 1001.4 |
| 20260506235048 | 32 | 76 | 3.2 | 12.9 | 0.00 | 0.00 | 0.00 | 27 | 1001.2 |
| 20260506234552 | 32 | 101 | 0.0 | 6.4 | 0.00 | 0.00 | 0.00 | 27 | 1001.3 |
| 20260506234046 | 32 | 116 | 0.0 | 9.7 | 0.00 | 0.00 | 0.00 | 27 | 1001.2 |
| 20260506233546 | 32 | 139 | 1.6 | 12.9 | 0.00 | 0.00 | 0.00 | 27 | 1001.1 |
| 20260506233045 | 32 | 89 | 3.2 | 12.9 | 0.00 | 0.00 | 0.00 | 27 | 1001.1 |
| 20260506232546 | 32 | 305 | 1.6 | 9.7 | 0.00 | 0.00 | 0.00 | 27 | 1001.1 |
| 20260506232044 | 32 | 59 | 1.6 | 12.9 | 0.00 | 0.00 | 0.00 | 27 | 1001.0 |
| 20260506231552 | 32 | 71 | 1.6 | 8.0 | 0.00 | 0.00 | 0.00 | 27 | 1001.0 |
| 20260506231045 | 32 | 117 | 0.0 | 6.4 | 0.00 | 0.00 | 0.00 | 26 | 1001.0 |
| 20260506230543 | 32 | 64 | 0.0 | 6.4 | 0.00 | 0.00 | 0.00 | 26 | 1001.1 |
| 20260506230054 | 32 | 116 | 1.6 | 6.4 | 0.00 | 0.00 | 0.00 | 26 | 1001.0 |
| 20260506225542 | 32 | 155 | 0.0 | 12.9 | 0.00 | 0.00 | 0.00 | 27 | 1001.1 |
| 20260506225042 | 32 | 77 | 4.8 | 12.9 | 0.00 | 0.00 | 0.00 | 27 | 1001.2 |
| 20260506224541 | 32 | 70 | 1.6 | 16.1 | 0.00 | 0.00 | 0.00 | 27 | 1001.3 |
| 20260506224040 | 32 | 110 | 3.2 | 16.1 | 0.00 | 0.00 | 0.00 | 27 | 1001.4 |
| 20260506223542 | 32 | 96 | 6.4 | 16.1 | 0.00 | 0.00 | 0.00 | 27 | 1001.4 |
| 20260506223050 | 33 | 142 | 1.6 | 16.1 | 0.00 | 0.00 | 0.00 | 27 | 1001.5 |
| 20260506222539 | 33 | 42 | 3.2 | 16.1 | 0.00 | 0.00 | 0.00 | 27 | 1001.5 |
| 20260506222038 | 32 | 89 | 1.6 | 17.7 | 0.00 | 0.00 | 0.00 | 28 | 1001.5 |
| 20260506221538 | 32 | 110 | 6.4 | 16.1 | 0.00 | 0.00 | 0.00 | 27 | 1001.6 |
| 20260506221038 | 33 | 75 | 3.2 | 16.1 | 0.00 | 0.00 | 0.00 | 26 | 1001.6 |
| 20260506220539 | 33 | 96 | 4.8 | 14.5 | 0.00 | 0.00 | 0.00 | 27 | 1001.6 |
| 20260506220038 | 33 | 116 | 1.6 | 9.7 | 0.00 | 0.00 | 0.00 | 27 | 1001.8 |
| 20260506215541 | 33 | 117 | 1.6 | 11.3 | 0.00 | 0.00 | 0.00 | 26 | 1001.8 |
| 20260506215035 | 33 | 110 | 4.8 | 17.7 | 0.00 | 0.00 | 0.00 | 27 | 1002.0 |
| 20260506214536 | 33 | 67 | 6.4 | 17.7 | 0.00 | 0.00 | 0.00 | 28 | 1001.9 |
| 20260506214036 | 33 | 96 | 6.4 | 17.7 | 0.00 | 0.00 | 0.00 | 26 | 1002.0 |
| 20260506213534 | 33 | 92 | 6.4 | 16.1 | 0.00 | 0.00 | 0.00 | 27 | 1002.0 |
| 20260506213045 | 33 | 237 | 0.0 | 11.3 | 0.00 | 0.00 | 0.00 | 26 | 1002.1 |
| 20260506212533 | 33 | 56 | 1.6 | 14.5 | 0.00 | 0.00 | 0.00 | 26 | 1002.3 |
| 20260506212038 | 33 | 27 | 4.8 | 14.5 | 0.00 | 0.00 | 0.00 | 27 | 1002.2 |
| 20260506211542 | 33 | 15 | 1.6 | 19.3 | 0.00 | 0.00 | 0.00 | 27 | 1002.4 |
| 20260506211030 | 33 | 125 | 4.8 | 19.3 | 0.00 | 0.00 | 0.00 | 27 | 1002.4 |
| 20260506210528 | 32 | 98 | 3.2 | 22.5 | 0.00 | 0.00 | 0.00 | 27 | 1002.5 |
| 20260506210033 | 32 | 84 | 1.6 | 22.5 | 0.00 | 0.00 | 0.00 | 27 | 1002.6 |
| 20260506205526 | 32 | 127 | 1.6 | 17.7 | 0.00 | 0.00 | 0.00 | 28 | 1002.5 |
| 20260506205026 | 32 | 110 | 3.2 | 12.9 | 0.00 | 0.00 | 0.00 | 27 | 1002.7 |
| 20260506204526 | 32 | 136 | 0.0 | 17.7 | 0.00 | 0.00 | 0.00 | 28 | 1002.7 |
| 20260506204025 | 32 | 86 | 6.4 | 17.7 | 0.00 | 0.00 | 0.00 | 27 | 1002.8 |
| 20260506203523 | 32 | 283 | 1.6 | 19.3 | 0.00 | 0.00 | 0.00 | 27 | 1002.8 |
| 20260506203028 | 32 | 90 | 4.8 | 19.3 | 0.00 | 0.00 | 0.00 | 27 | 1003.0 |
| 20260506202521 | 32 | 170 | 3.2 | 19.3 | 0.00 | 0.00 | 0.00 | 27 | 1003.2 |
| 20260506202024 | 32 | 142 | 1.6 | 19.3 | 0.00 | 0.00 | 0.00 | 28 | 1003.3 |
| 20260506201531 | 32 | 103 | 6.4 | 17.7 | 0.00 | 0.00 | 0.00 | 27 | 1003.4 |
| 20260506201019 | 32 | 63 | 6.4 | 16.1 | 0.00 | 0.00 | 0.00 | 26 | 1003.5 |
| 20260506200518 | 32 | 98 | 4.8 | 16.1 | 0.00 | 0.00 | 0.00 | 28 | 1003.6 |
| 20260506200017 | 32 | 96 | 4.8 | 14.5 | 0.00 | 0.00 | 0.00 | 27 | 1003.7 |
| 20260506195517 | 32 | 96 | 4.8 | 16.1 | 0.00 | 0.00 | 0.00 | 28 | 1003.9 |
| 20260506195016 | 32 | 126 | 4.8 | 19.3 | 0.00 | 0.00 | 0.00 | 27 | 1004.0 |
| 20260506194515 | 32 | 80 | 8.0 | 19.3 | 0.00 | 0.00 | 0.00 | 27 | 1004.0 |
| 20260506194014 | 32 | 96 | 8.0 | 19.3 | 0.00 | 0.00 | 0.00 | 27 | 1004.3 |
| 20260506193514 | 32 | 120 | 4.8 | 25.7 | 0.00 | 0.00 | 0.00 | 27 | 1004.4 |
| 20260506193012 | 32 | 81 | 1.6 | 17.7 | 0.00 | 0.00 | 0.00 | 27 | 1004.6 |
| 20260506192511 | 32 | 224 | 6.4 | 19.3 | 0.00 | 0.00 | 0.00 | 27 | 1004.6 |
| 20260506192010 | 31 | 61 | 8.0 | 19.3 | 0.00 | 0.00 | 0.00 | 27 | 1004.7 |
| 20260506191509 | 31 | 104 | 3.2 | 17.7 | 0.00 | 0.00 | 0.00 | 27 | 1004.9 |
| 20260506191011 | 31 | 146 | 4.8 | 16.1 | 0.00 | 0.00 | 0.00 | 26 | 1005.0 |
| 20260506190507 | 31 | 94 | 4.8 | 17.7 | 0.00 | 0.00 | 0.00 | 27 | 1005.1 |
| 20260506190006 | 31 | 142 | 1.6 | 17.7 | 0.00 | 0.00 | 0.00 | 27 | 1005.4 |
| 20260506185504 | 31 | 79 | 3.2 | 17.7 | 0.00 | 0.00 | 0.00 | 27 | 1005.5 |
| 20260506185004 | 31 | 53 | 3.2 | 16.1 | 0.00 | 0.00 | 0.00 | 27 | 1005.7 |
| 20260506184504 | 31 | 110 | 6.4 | 16.1 | 0.00 | 0.00 | 0.00 | 26 | 1005.7 |
| 20260506184006 | 31 | 134 | 0.0 | 14.5 | 0.00 | 0.00 | 0.00 | 27 | 1005.9 |
| 20260506183502 | 31 | 46 | 4.8 | 14.5 | 0.00 | 0.00 | 0.00 | 27 | 1005.9 |
| 20260506183002 | 31 | 17 | 1.6 | 17.7 | 0.00 | 0.00 | 0.00 | 27 | 1005.9 |
| 20260506182502 | 31 | 93 | 8.0 | 17.7 | 0.00 | 0.00 | 0.00 | 27 | 1006.0 |
| 20260506182000 | 31 | 85 | 4.8 | 14.5 | 0.00 | 0.00 | 0.00 | 26 | 1006.1 |
| 20260506181601 | 31 | 114 | 3.2 | 14.5 | 0.00 | 0.00 | 0.00 | 27 | 1006.2 |
| 20260506181100 | 30 | 94 | 3.2 | 14.5 | 0.00 | 0.00 | 0.00 | 27 | 1006.3 |
| 20260506180600 | 30 | 72 | 4.8 | 14.5 | 0.00 | 0.00 | 0.00 | 27 | 1006.4 |
| 20260506180100 | 31 | 104 | 6.4 | 16.1 | 0.00 | 0.00 | 0.00 | 26 | 1006.5 |
| 20260506175558 | 31 | 109 | 3.2 | 16.1 | 0.00 | 0.00 | 0.00 | 27 | 1006.6 |
| 20260506175057 | 31 | 92 | 3.2 | 11.3 | 0.00 | 0.00 | 0.00 | 27 | 1006.6 |
| 20260506174559 | 30 | 299 | 0.0 | 14.5 | 0.00 | 0.00 | 0.00 | 27 | 1006.7 |
| 20260506174058 | 31 | 131 | 3.2 | 14.5 | 0.00 | 0.00 | 0.00 | 27 | 1006.7 |
| 20260506173557 | 31 | 262 | 0.0 | 12.9 | 0.00 | 0.00 | 0.00 | 28 | 1006.8 |
| 20260506173103 | 30 | 11 | 3.2 | 16.1 | 0.00 | 0.00 | 0.00 | 28 | 1007.0 |
| 20260506172558 | 30 | 64 | 11.3 | 16.1 | 0.00 | 0.00 | 0.00 | 28 | 1007.0 |
| 20260506172053 | -17 | 0.0 | 0.0 | 0.00 | 0.00 | 0.00 | 1007.2 | ||
| 20260506171554 | -17 | 0.0 | 0.0 | 0.00 | 0.00 | 0.00 | 1007.2 | ||
| 20260506171053 | -17 | 0.0 | 0.0 | 0.00 | 0.00 | 0.00 | 1007.2 | ||
| 20260506170549 | -17 | 0.0 | 0.0 | 0.00 | 0.00 | 0.00 | 1007.2 | ||
| 20260506170106 | -17 | 0.0 | 0.0 | 0.00 | 0.00 | 0.00 | 1007.3 | ||
| 20260506165550 | -17 | 0.0 | 0.0 | 0.00 | 0.00 | 0.00 | 1007.3 | ||
| 20260506165048 | -17 | 0.0 | 0.0 | 0.00 | 0.00 | 0.00 | 1007.6 | ||
| 20260506164543 | -17 | 0.0 | 0.0 | 0.00 | 0.00 | 0.00 | 1007.6 | ||
| 20260506164041 | -17 | 0.0 | 0.0 | 0.00 | 0.00 | 0.00 | 1007.6 | ||
| 20260506163540 | -17 | 0.0 | 0.0 | 0.00 | 0.00 | 0.00 | 1007.5 | ||
| 20260506163046 | -17 | 0.0 | 0.0 | 0.00 | 0.00 | 0.00 | 1007.5 | ||
| 20260506162538 | -17 | 0.0 | 0.0 | 0.00 | 0.00 | 0.00 | 1007.6 | ||
| 20260506162038 | -17 | 0.0 | 0.0 | 0.00 | 0.00 | 0.00 | 1007.7 | ||
| 20260506161535 | -17 | 0.0 | 0.0 | 0.00 | 0.00 | 0.00 | 1007.7 | ||
| 20260506161032 | -17 | 0.0 | 0.0 | 0.00 | 0.00 | 0.00 | 1007.7 | ||
| 20260506160530 | -17 | 0.0 | 0.0 | 0.00 | 0.00 | 0.00 | 1007.8 | ||
| 20260506160030 | -17 | 0.0 | 0.0 | 0.00 | 0.00 | 0.00 | 1007.7 | ||
| 20260506155529 | -17 | 0.0 | 0.0 | 0.00 | 0.00 | 0.00 | 1007.7 | ||
| 20260506155026 | -17 | 0.0 | 0.0 | 0.00 | 0.00 | 0.00 | 1007.7 | ||
| 20260506154527 | -17 | 0.0 | 0.0 | 0.00 | 0.00 | 0.00 | 1007.8 | ||
| 20260506154024 | -17 | 0.0 | 0.0 | 0.00 | 0.00 | 0.00 | 1007.7 | ||
| 20260506153523 | -17 | 0.0 | 0.0 | 0.00 | 0.00 | 0.00 | 1007.7 | ||
| 20260506153021 | -17 | 0.0 | 0.0 | 0.00 | 0.00 | 0.00 | 1007.8 | ||
| 20260506152518 | -17 | 0.0 | 0.0 | 0.00 | 0.00 | 0.00 | 1007.8 | ||
| 20260506152019 | -17 | 0.0 | 0.0 | 0.00 | 0.00 | 0.00 | 1007.7 | ||
| 20260506151518 | -17 | 0.0 | 0.0 | 0.00 | 0.00 | 0.00 | 1007.7 | ||
| 20260506151014 | -17 | 0.0 | 0.0 | 0.00 | 0.00 | 0.00 | 1007.7 | ||
| 20260506150512 | -17 | 0.0 | 0.0 | 0.00 | 0.00 | 0.00 | 1007.7 | ||
| 20260506150011 | -17 | 0.0 | 0.0 | 0.00 | 0.00 | 0.00 | 1007.7 | ||
| 20260506145511 | -17 | 0.0 | 0.0 | 0.00 | 0.00 | 0.00 | 1007.8 | ||
| 20260506145008 | -17 | 0.0 | 0.0 | 0.00 | 0.00 | 0.00 | 1007.6 | ||
| 20260506144506 | -17 | 0.0 | 0.0 | 0.00 | 0.00 | 0.00 | 1007.6 | ||
| 20260506144005 | -17 | 0.0 | 0.0 | 0.00 | 0.00 | 0.00 | 1007.6 | ||
| 20260506143504 | -17 | 0.0 | 0.0 | 0.00 | 0.00 | 0.00 | 1007.7 | ||
| 20260506143005 | -17 | 0.0 | 0.0 | 0.00 | 0.00 | 0.00 | 1007.7 | ||
| 20260506142501 | -17 | 0.0 | 0.0 | 0.00 | 0.00 | 0.00 | 1007.7 | ||
| 20260506142102 | -17 | 0.0 | 0.0 | 0.00 | 0.00 | 0.00 | 1007.5 | ||
| 20260506141558 | -17 | 0.0 | 0.0 | 0.00 | 0.00 | 0.00 | 1007.5 | ||
| 20260506141057 | -17 | 0.0 | 0.0 | 0.00 | 0.00 | 0.00 | 1007.5 | ||
| 20260506140557 | -17 | 0.0 | 0.0 | 0.00 | 0.00 | 0.00 | 1007.6 | ||
| 20260506140054 | -17 | 0.0 | 0.0 | 0.00 | 0.00 | 0.00 | 1007.4 | ||
| 20260506135552 | -17 | 0.0 | 0.0 | 0.00 | 0.00 | 0.00 | 1007.2 | ||
| 20260506135050 | -17 | 0.0 | 0.0 | 0.00 | 0.00 | 0.00 | 1007.3 | ||
| 20260506134550 | -17 | 0.0 | 0.0 | 0.00 | 0.00 | 0.00 | 1007.3 | ||
| 20260506134049 | -17 | 0.0 | 0.0 | 0.00 | 0.00 | 0.00 | 1007.3 | ||
| 20260506133548 | -17 | 0.0 | 0.0 | 0.00 | 0.00 | 0.00 | 1007.4 | ||
| 20260506133045 | -17 | 0.0 | 0.0 | 0.00 | 0.00 | 0.00 | 1007.1 | ||
| 20260506132543 | -17 | 0.0 | 0.0 | 0.00 | 0.00 | 0.00 | 1007.1 | ||
| 20260506132047 | -17 | 0.0 | 0.0 | 0.00 | 0.00 | 0.00 | 1007.1 | ||
| 20260506131541 | -17 | 0.0 | 0.0 | 0.00 | 0.00 | 0.00 | 1007.1 | ||
| 20260506131041 | -17 | 0.0 | 0.0 | 0.00 | 0.00 | 0.00 | 1007.0 | ||
| 20260506130538 | -17 | 0.0 | 0.0 | 0.00 | 0.00 | 0.00 | 1006.9 | ||
| 20260506130037 | -17 | 0.0 | 0.0 | 0.00 | 0.00 | 0.00 | 1006.8 | ||
| 20260506125534 | -17 | 0.0 | 0.0 | 0.00 | 0.00 | 0.00 | 1006.9 | ||
| 20260506125033 | -17 | 0.0 | 0.0 | 0.00 | 0.00 | 0.00 | 1006.9 |